カタリナ彗星

257P/Catalina (2006)

English version
Home page
Updated on June 5, 2012

---------------------------------------------------------------------

・ プロフィール

符号 257P/2005 JY126
発見日 2005年5月12日
発見光度 17.4等
発見者 Catalina Sky Survey

・ 軌道要素

Epoch 2006 Mar. 6.0 TT = JDT 2453800.5
T 2006 Feb. 21.32535 TT                                 MPC
q   2.1259869            (2000.0)            P               Q
n   0.13559389     Peri.  117.58760     +0.79918201     +0.57876029
a   3.7524015      Node   207.98603     -0.59631602     +0.79734587
e   0.4334330      Incl.   20.23604     +0.07559968     +0.17110259
P   7.27
From 321 observations 2005 Apr. 17-2012 May 28, mean residual 0".7.

・ 星図

・ 光度変化

        m1 = 11.8 + 5 logΔ + 10.0 log r(t + 70)

---------------------------------------------------------------------

軌道要素はM.P.E.C. 2012-L04に掲載されたものです。
星図は StellaNavigator Ver.2.0 for Windows (アストロアーツ 編著 / アスキー出版局刊) で作成したものです。
光度グラフはComet for Windowsで作成したものです。

---------------------------------------------------------------------

Copyright(C) Seiichi Yoshida (comet@aerith.net). All rights reserved.